PBO Station Position Time Series. Reference Frame : NAM14
Format Version,1.1.0
4-character ID,WIFR
Station name,Wife_Reset
Begin Date, 2008-10-30
End Date, 2018-07-17
Release Date, 2021-08-26
Reference position, 44.0596788518 North Latitude, -121.8175792238 East Longitude, 1951.54020 meters elevation,
Date, North (mm), East (mm), Vertical (mm), North Std. Deviation (mm), East Std. Deviation (mm),              Vertical Std. Deviation (mm), Quality,
2008-10-30,0.00, 0.00, 0.00, 2.34, 1.62, 7.53, repro,
2008-10-31,0.92, 0.48, -9.56, 2.47, 1.78, 8.35, repro,
2008-11-01,2.46, -0.71, -2.88, 2.30, 1.63, 7.58, repro,
2008-11-02,1.82, 1.31, -18.27, 2.29, 1.65, 7.70, repro,
2008-11-03,-2.42, -2.03, -0.95, 2.50, 1.78, 8.24, repro,
2008-11-04,-3.64, -0.65, -1.23, 2.39, 1.69, 7.95, repro,
2008-11-05,-1.71, -1.33, 1.85, 2.53, 1.79, 8.56, repro,
2008-11-06,5.56, 3.51, -13.30, 2.61, 1.83, 9.02, repro,
2008-11-07,1.78, 1.04, -22.68, 2.28, 1.67, 7.75, repro,
2008-11-08,-0.34, 1.26, -5.98, 2.26, 1.61, 7.48, repro,
2008-11-09,-3.07, -1.93, -13.03, 2.36, 1.73, 8.17, repro,
2008-11-10,-2.73, 8.87, 33.73, 2.37, 1.74, 8.08, repro,
2008-11-11,-0.50, -4.75, 33.44, 4.13, 2.90, 14.06, repro,
2008-11-12,0.40, 2.26, -21.90, 2.64, 1.85, 8.90, repro,
2008-11-13,2.78, 1.01, -7.13, 2.33, 1.73, 8.12, repro,
2008-11-14,2.40, 2.43, -10.66, 2.36, 1.67, 7.98, repro,
2008-11-15,1.65, 2.31, -21.63, 2.27, 1.63, 7.67, repro,
2008-11-16,0.66, 0.78, -15.13, 2.34, 1.66, 7.95, repro,
2008-11-17,0.10, 0.76, -17.52, 2.42, 1.80, 8.27, repro,
2008-11-18,1.24, 0.24, -17.41, 2.42, 1.75, 8.00, repro,
2008-11-19,-3.13, 2.53, -8.63, 3.44, 2.28, 10.86, repro,
2008-11-20,0.14, 2.13, -9.49, 2.31, 1.71, 7.93, repro,
2008-11-21,-0.16, 0.51, -13.55, 2.27, 1.66, 7.69, repro,
2008-11-22,1.71, -0.40, -2.23, 2.32, 1.76, 7.98, repro,
2008-11-23,-4.94, -3.88, -6.88, 2.36, 1.65, 7.82, repro,
2008-11-24,-6.61, -5.19, -21.21, 2.48, 1.76, 8.49, repro,
2008-11-25,-0.75, 1.76, -17.29, 2.36, 1.71, 7.77, repro,
2008-11-26,0.95, 3.57, -18.67, 2.34, 1.65, 7.67, repro,
2008-11-27,-0.32, 0.97, -9.72, 2.24, 1.62, 7.54, repro,
2008-11-28,-0.16, -0.55, -13.43, 2.34, 1.69, 7.87, repro,
2008-11-29,-3.16, 1.96, -17.92, 2.37, 1.73, 8.07, repro,
2008-11-30,0.82, 2.52, -9.21, 2.27, 1.65, 7.59, repro,
2008-12-01,-0.32, 2.58, -7.61, 2.29, 1.67, 7.66, repro,
2008-12-02,1.32, -0.04, -4.45, 2.47, 1.70, 8.27, repro,
2008-12-03,-6.57, -9.54, -32.73, 2.55, 1.76, 8.65, repro,
2008-12-04,-8.21, -4.27, -8.40, 2.28, 1.62, 7.67, repro,
2008-12-05,-1.71, -0.90, -7.54, 2.29, 1.68, 7.76, repro,
2008-12-06,2.43, 1.86, -14.14, 2.26, 1.64, 7.60, repro,
2008-12-07,0.50, 1.68, -13.75, 2.34, 1.74, 7.93, repro,
2008-12-08,-1.30, -0.57, -3.89, 2.45, 1.75, 8.30, repro,
2008-12-09,0.57, -3.68, -18.55, 2.30, 1.60, 7.67, repro,
2008-12-10,-2.27, -5.02, -16.69, 2.28, 1.63, 7.63, repro,
2008-12-11,1.60, 1.49, -16.94, 2.37, 1.67, 7.83, repro,
2008-12-12,0.88, 2.28, -1.10, 2.47, 1.80, 8.11, repro,
2008-12-13,2.03, 0.89, -8.48, 2.44, 1.82, 8.48, repro,
2008-12-14,-1.11, -0.17, -5.98, 2.28, 1.59, 7.50, repro,
2008-12-15,-0.12, 1.08, -3.04, 2.39, 1.69, 7.86, repro,
2008-12-16,4.50, 0.79, -11.08, 2.43, 1.71, 8.04, repro,
2008-12-17,-3.99, -3.31, -12.47, 2.43, 1.76, 8.23, repro,
2008-12-18,-2.40, -3.07, -3.91, 2.33, 1.60, 7.46, repro,
2008-12-19,-3.45, -1.46, -7.43, 2.66, 1.88, 8.78, repro,
2008-12-20,-3.42, -0.06, -10.51, 2.40, 1.66, 7.75, repro,
2008-12-21,-1.43, -0.29, -16.75, 2.32, 1.64, 7.80, repro,
2008-12-22,4.44, -0.35, -15.71, 2.37, 1.68, 8.00, repro,
2008-12-23,3.89, -1.29, -17.03, 2.52, 1.77, 8.52, repro,
2008-12-24,1.60, -4.05, -2.68, 2.56, 1.83, 8.52, repro,
2008-12-25,1.05, -2.51, 5.95, 2.53, 1.81, 8.28, repro,
2008-12-26,-0.81, -5.94, -3.42, 2.47, 1.75, 8.28, repro,
2008-12-27,2.67, -2.05, -7.67, 2.59, 1.86, 8.81, repro,
2008-12-28,0.34, -5.47, -18.23, 2.39, 1.71, 8.09, repro,
2008-12-29,0.84, -4.90, -24.79, 2.61, 1.77, 8.39, repro,
2008-12-30,0.75, -5.17, -11.27, 2.61, 1.85, 8.61, repro,
2008-12-31,0.94, -6.85, -11.29, 2.69, 1.98, 9.58, repro,
2009-01-01,0.92, -10.24, -9.06, 2.43, 1.74, 8.36, repro,
2009-01-02,0.27, -12.43, -23.03, 2.49, 1.76, 8.27, repro,
2009-01-03,3.97, -12.48, -26.92, 2.45, 1.72, 8.13, repro,
2009-01-04,1.08, -12.81, -22.44, 2.54, 1.81, 8.44, repro,
2009-01-05,2.99, -13.35, -11.57, 2.57, 1.75, 8.33, repro,
2009-01-06,13.47, -15.00, -30.22, 2.46, 1.73, 8.32, repro,
2009-01-07,14.48, -26.49, -31.88, 2.39, 1.73, 8.24, repro,
2009-01-08,6.36, -30.57, -56.66, 2.97, 1.86, 9.62, repro,
2009-01-09,1.06, -22.59, -44.36, 2.50, 1.71, 8.13, repro,
2009-01-10,8.30, -18.31, -44.37, 2.34, 1.65, 7.90, repro,
2009-01-11,15.11, -13.08, -3.89, 2.51, 1.70, 8.03, repro,
2009-01-12,7.70, -2.79, -32.00, 2.24, 1.66, 7.59, repro,
2009-01-13,5.91, -2.69, -20.70, 2.52, 1.78, 8.52, repro,
2009-01-14,4.83, -2.78, -26.32, 2.34, 1.69, 7.77, repro,
2009-01-15,1.98, -1.08, -21.52, 2.35, 1.71, 7.95, repro,
2009-01-16,1.82, 0.02, -28.57, 2.35, 1.69, 7.77, repro,
2009-01-17,0.00, 0.43, -13.36, 2.27, 1.66, 7.71, repro,
2009-01-18,1.14, 2.15, -25.39, 2.32, 1.74, 7.86, repro,
2009-01-19,0.80, 2.60, -23.21, 2.31, 1.63, 7.64, repro,
2009-01-20,-2.13, 3.82, -11.70, 2.39, 1.73, 7.98, repro,
2009-01-21,0.30, 3.60, -22.31, 2.31, 1.72, 7.92, repro,
2009-01-22,-0.91, 2.83, -11.21, 2.33, 1.72, 7.91, repro,
2009-01-23,-0.01, 2.04, -18.25, 2.33, 1.73, 7.98, repro,
2009-01-24,-0.60, 2.69, -34.56, 2.51, 1.81, 8.47, repro,
2009-01-25,-1.51, 2.35, -16.11, 2.34, 1.70, 7.82, repro,
2009-01-26,1.63, 2.33, -12.21, 2.34, 1.70, 7.84, repro,
2009-01-27,0.90, 1.58, -16.24, 2.35, 1.74, 7.88, repro,
2009-01-28,2.41, 0.32, -29.85, 2.37, 1.72, 7.87, repro,
2009-01-29,-0.95, -0.41, -31.78, 2.49, 1.85, 8.47, repro,
2009-01-30,1.88, 0.33, -16.57, 2.28, 1.68, 7.64, repro,
2009-01-31,4.15, -0.96, -15.02, 2.29, 1.70, 7.78, repro,
2009-02-01,2.42, -0.53, -26.66, 2.28, 1.69, 7.71, repro,
2009-02-02,0.87, -1.86, -17.46, 2.23, 1.61, 7.45, repro,
2009-02-03,2.37, -0.12, -23.61, 2.41, 1.75, 8.14, repro,
2009-02-04,1.18, 1.18, -18.18, 2.24, 1.68, 7.63, repro,
2009-02-05,1.10, 0.92, -14.05, 2.43, 1.74, 8.03, repro,
2009-02-06,2.07, -0.65, -24.81, 2.44, 1.77, 8.36, repro,
2009-02-07,2.67, -2.09, -29.48, 2.39, 1.73, 8.02, repro,
2009-02-08,-1.20, -0.16, -6.03, 2.26, 1.64, 7.57, repro,
2009-02-09,0.31, -0.93, -8.54, 2.33, 1.76, 8.05, repro,
2009-02-10,1.10, -1.64, -14.63, 2.29, 1.71, 7.82, repro,
2009-02-11,1.65, -3.54, -29.20, 2.48, 1.87, 8.43, repro,
2009-02-12,-0.58, -2.94, -20.08, 2.33, 1.68, 7.73, repro,
2009-02-13,-1.23, -1.89, -9.88, 2.28, 1.66, 7.66, repro,
2009-02-14,-0.23, -1.62, -12.55, 2.30, 1.69, 7.68, repro,
2009-02-15,0.89, 0.26, -20.22, 2.38, 1.73, 7.95, repro,
2009-02-16,-0.32, 0.25, -16.32, 2.32, 1.70, 7.81, repro,
2009-02-17,0.73, 0.81, -7.08, 2.33, 1.66, 7.59, repro,
2009-02-18,0.35, -3.27, -20.22, 2.31, 1.76, 7.88, repro,
2009-02-19,-4.14, -4.71, -26.17, 2.42, 1.82, 8.43, repro,
2009-02-20,1.04, -3.57, -15.56, 2.41, 1.75, 8.06, repro,
2009-02-21,1.94, -1.93, -18.16, 2.24, 1.63, 7.55, repro,
2009-02-22,6.46, -2.06, -23.94, 2.39, 1.79, 8.10, repro,
2009-02-23,0.97, -2.14, -12.95, 2.47, 1.78, 8.29, repro,
2009-02-24,4.37, -1.53, -15.69, 2.34, 1.75, 7.96, repro,
2009-02-25,0.88, -3.07, -10.47, 176.35, 162.94, 317.20, repro,
2009-02-26,2.37, -0.61, -8.93, 2.31, 1.71, 7.86, repro,
2009-02-27,5.32, -2.70, -23.41, 2.34, 1.75, 8.10, repro,
2009-02-28,3.30, -2.08, -10.41, 2.38, 1.75, 8.13, repro,
2009-03-01,5.56, -1.71, -15.58, 2.81, 2.17, 9.80, repro,
2009-03-02,3.72, -4.36, -16.20, 2.33, 1.69, 7.85, repro,
2009-03-03,3.62, -2.83, -14.73, 2.52, 1.89, 8.63, repro,
2009-03-04,2.78, -3.13, -10.32, 2.37, 1.79, 8.18, repro,
2009-03-05,4.30, -2.88, -24.87, 2.33, 1.70, 7.74, repro,
2009-03-06,4.18, -3.89, -12.61, 2.49, 1.94, 8.85, repro,
2009-03-07,3.48, -5.47, -17.93, 2.27, 1.67, 7.55, repro,
2009-03-08,3.94, -4.56, -14.32, 2.21, 1.65, 7.47, repro,
2009-03-09,4.81, -2.23, -25.37, 2.33, 1.74, 7.83, repro,
2009-03-10,4.58, -6.36, -18.65, 2.39, 1.81, 8.34, repro,
2009-03-11,7.37, -10.05, -17.07, 2.40, 1.75, 8.06, repro,
2009-03-12,6.45, -1.95, -24.26, 2.33, 1.76, 8.00, repro,
2009-03-13,4.45, -2.66, -17.48, 2.34, 1.82, 8.21, repro,
2009-03-14,6.04, -2.45, -12.60, 2.37, 1.77, 8.04, repro,
2009-03-15,5.48, -1.59, -3.35, 2.27, 1.72, 7.75, repro,
2009-03-16,6.42, -1.85, -21.38, 2.46, 1.82, 8.22, repro,
2009-03-17,5.20, -4.91, -9.26, 2.28, 1.70, 7.80, repro,
2009-03-18,3.88, -6.43, -23.59, 2.33, 1.78, 8.05, repro,
2009-03-19,7.12, -1.10, -22.91, 2.44, 1.80, 8.42, repro,
2009-03-20,6.96, -3.33, -23.57, 2.30, 1.74, 7.97, repro,
2009-03-21,4.69, -6.39, -11.09, 2.26, 1.65, 7.49, repro,
2009-03-22,4.16, -5.31, -8.18, 2.26, 1.65, 7.46, repro,
2009-03-23,2.73, -12.08, -13.20, 2.32, 1.70, 7.78, repro,
2009-03-24,5.14, -16.24, -28.54, 2.34, 1.76, 8.07, repro,
2009-03-25,-10.85, -35.32, -10.52, 2.46, 1.72, 8.55, repro,
2009-03-26,8.58, -21.75, -18.92, 2.43, 1.85, 8.41, repro,
2009-03-27,31.14, -22.60, -18.40, 2.49, 1.84, 8.84, repro,
2009-03-28,9.29, -3.89, -33.02, 2.52, 1.86, 8.56, repro,
2009-03-29,8.09, -4.17, -14.39, 2.43, 1.80, 8.43, repro,
2009-03-30,6.63, -7.06, -23.37, 2.37, 1.75, 8.21, repro,
2009-03-31,9.08, -4.11, -24.72, 2.58, 1.88, 8.88, repro,
2009-04-01,13.16, -5.60, -28.25, 2.54, 1.86, 8.52, repro,
2009-04-02,9.33, 3.02, 0.37, 2.39, 1.77, 8.26, repro,
2009-04-03,8.57, 1.60, 20.34, 2.51, 1.85, 8.64, repro,
2009-04-04,10.44, 2.26, 2.02, 2.36, 1.73, 8.06, repro,
2009-04-05,-3.21, -11.65, -30.31, 2.85, 2.14, 9.94, repro,
2009-04-06,12.40, -3.66, -23.69, 2.42, 1.75, 8.09, repro,
2009-04-07,13.18, -5.41, -15.15, 2.44, 1.77, 8.18, repro,
2009-04-08,8.70, -4.64, -21.89, 2.43, 1.73, 8.09, repro,
2009-04-09,12.00, -6.97, -31.26, 2.57, 1.78, 8.59, repro,
2009-04-10,11.40, -5.59, -13.14, 2.34, 1.65, 7.76, repro,
2009-04-11,17.83, -10.83, -23.68, 2.38, 1.72, 8.04, repro,
2009-04-12,13.75, -7.59, -29.30, 2.50, 1.75, 8.13, repro,
2009-04-13,12.47, -7.17, -33.20, 2.34, 1.69, 7.91, repro,
2009-04-14,14.73, -7.19, -33.80, 2.54, 1.83, 8.46, repro,
2009-04-15,14.51, -7.03, -17.49, 2.50, 1.76, 8.27, repro,
2009-04-16,5.85, -23.14, -43.31, 2.69, 1.89, 9.12, repro,
2009-04-17,15.75, -8.22, -25.75, 2.33, 1.66, 7.82, repro,
2009-04-18,15.32, -5.60, -26.76, 2.41, 1.72, 8.11, repro,
2009-04-19,14.07, -6.39, -17.69, 2.50, 1.89, 8.79, repro,
2009-04-20,12.27, -6.40, -18.33, 2.49, 1.80, 8.53, repro,
2009-04-21,12.25, -7.09, -22.79, 2.38, 1.70, 7.88, repro,
2009-04-22,9.89, -5.59, -8.93, 2.68, 1.85, 9.12, repro,
2009-04-23,10.83, -6.52, -8.84, 2.44, 1.69, 7.91, repro,
2009-04-24,8.53, -7.17, -11.52, 2.45, 1.68, 7.82, repro,
2009-04-25,12.38, -5.16, -16.27, 2.37, 1.70, 7.86, repro,
2009-04-26,11.88, -5.23, -21.07, 2.31, 1.65, 7.57, repro,
2009-04-27,10.79, -4.81, -14.98, 2.38, 1.73, 7.97, repro,
2009-04-28,10.03, -8.71, -17.00, 2.31, 1.64, 7.59, repro,
2009-04-29,14.41, -12.41, -38.85, 2.47, 1.77, 8.27, repro,
2009-04-30,11.04, -10.10, -14.30, 2.52, 1.85, 8.79, repro,
2009-05-01,11.44, -5.14, -20.03, 2.37, 1.68, 8.02, repro,
2009-05-02,10.71, -5.68, -28.75, 2.48, 1.70, 8.07, repro,
2009-05-03,13.94, -8.21, -11.71, 2.47, 1.82, 8.51, repro,
2009-05-04,-5.10, -15.64, 61.08, 2.43, 1.69, 8.02, repro,
2009-05-05,9.70, -4.99, -9.65, 2.54, 1.77, 8.49, repro,
2009-05-06,19.71, -2.43, -17.07, 2.82, 2.08, 10.73, repro,
2009-05-07,3.50, -3.22, -27.00, 2.60, 1.85, 8.77, repro,
2009-05-08,0.59, -10.17, -35.64, 2.55, 1.80, 8.55, repro,
2009-05-09,11.67, -2.99, -26.66, 2.30, 1.64, 7.66, repro,
2009-05-10,12.32, -4.27, -26.44, 2.42, 1.70, 7.94, repro,
2009-05-11,12.55, -3.77, -28.34, 2.50, 1.74, 8.17, repro,
2009-05-12,11.17, -4.27, -22.17, 2.47, 1.73, 7.96, repro,
2009-05-13,12.40, -4.41, -30.18, 2.36, 1.79, 8.19, repro,
2009-05-14,10.21, -4.92, -15.41, 2.45, 1.74, 8.08, repro,
2009-05-15,10.28, -4.53, -12.52, 2.42, 1.67, 7.84, repro,
2009-05-16,11.01, -5.21, -17.95, 2.42, 1.68, 7.98, repro,
2009-05-17,11.38, -3.91, -29.10, 2.30, 1.60, 7.50, repro,
2009-05-18,11.78, -3.03, -23.75, 2.35, 1.67, 7.81, repro,
2009-05-19,10.59, -6.29, -30.09, 2.39, 1.73, 8.17, repro,
2009-05-20,9.67, -3.92, -23.85, 2.43, 1.75, 8.03, repro,
2009-05-21,7.40, -3.12, -14.20, 2.35, 1.67, 7.82, repro,
2009-05-22,7.74, -1.81, -18.59, 2.32, 1.65, 7.72, repro,
2009-05-23,3.32, -1.83, -23.98, 2.41, 1.65, 7.86, repro,
2009-05-24,0.28, -0.89, -15.30, 2.37, 1.64, 7.77, repro,
2009-05-25,1.83, 0.04, -23.06, 2.38, 1.65, 7.80, repro,
2009-05-26,0.13, 2.80, -20.43, 2.33, 1.66, 7.87, repro,
2009-05-27,-3.96, 4.57, -17.57, 2.40, 1.68, 7.79, repro,
2009-05-28,-3.93, 3.84, -8.64, 2.30, 1.60, 7.56, repro,
2009-05-29,-6.48, 2.98, -9.01, 2.95, 1.97, 9.46, repro,
2009-05-30,-6.03, 5.83, -19.83, 2.37, 1.66, 7.82, repro,
2009-05-31,-2.49, 4.30, -11.21, 2.26, 1.60, 7.61, repro,
2009-06-01,-3.78, 3.50, -19.91, 2.34, 1.68, 7.80, repro,
2009-06-02,-4.77, 2.65, -19.69, 2.42, 1.69, 7.89, repro,
2009-06-03,-6.92, 5.55, -19.93, 2.83, 1.95, 9.26, repro,
2009-06-04,-3.07, 4.07, -21.67, 2.37, 1.68, 7.93, repro,
2009-06-05,-4.43, 4.56, -22.44, 2.27, 1.60, 7.56, repro,
2009-06-06,-5.90, 4.13, -16.56, 2.50, 1.79, 8.40, repro,
2009-06-07,-4.40, 2.89, -18.03, 2.31, 1.66, 7.73, repro,
2009-06-08,-2.24, 2.54, -14.24, 2.49, 1.76, 8.08, repro,
2009-06-09,-4.00, 3.49, -1.93, 2.38, 1.63, 7.69, repro,
2009-06-10,-5.71, 3.54, -21.54, 2.45, 1.70, 7.95, repro,
2009-06-11,-4.73, 6.25, -14.69, 2.47, 1.74, 8.27, repro,
2009-06-12,-4.70, 4.88, -14.48, 2.29, 1.64, 7.70, repro,
2009-06-13,-5.63, 5.25, -17.80, 2.31, 1.63, 7.69, repro,
2009-06-14,-3.54, 3.09, -21.50, 2.42, 1.68, 7.89, repro,
2009-06-15,-5.87, 3.39, -20.44, 2.32, 1.67, 7.80, repro,
2009-06-16,-5.10, 2.82, -11.57, 2.28, 1.60, 7.49, repro,
2009-06-17,-5.95, 3.29, -12.17, 2.28, 1.61, 7.60, repro,
2009-06-18,-3.12, 2.54, -22.12, 2.36, 1.71, 8.06, repro,
2009-06-19,-5.19, 3.66, -11.50, 2.41, 1.73, 8.08, repro,
2009-06-20,-5.32, 2.16, -8.92, 2.37, 1.71, 7.91, repro,
2009-06-21,-6.03, 3.95, -3.57, 2.44, 1.77, 8.30, repro,
2009-06-22,-15.64, -1.38, -1.49, 2.52, 1.78, 8.56, repro,
2009-06-23,-6.87, 2.81, -2.41, 2.42, 1.69, 8.06, repro,
2009-06-24,-3.54, 3.26, -12.36, 2.41, 1.71, 8.01, repro,
2009-06-25,-5.51, 3.31, -9.59, 2.41, 1.67, 7.83, repro,
2009-06-26,-4.62, 1.91, -9.73, 2.32, 1.66, 7.70, repro,
2009-06-27,-4.62, 3.36, -17.38, 2.43, 1.74, 8.08, repro,
2009-06-28,-7.35, 2.47, -2.24, 2.28, 1.63, 7.66, repro,
2009-06-29,-4.35, 3.28, -19.00, 2.46, 1.77, 8.35, repro,
2009-06-30,-3.93, 4.15, -17.27, 2.46, 1.79, 8.29, repro,
2009-07-01,-4.02, 3.94, -11.61, 2.38, 1.72, 7.84, repro,
2009-07-02,-4.62, 3.08, -10.46, 2.29, 1.65, 7.68, repro,
2009-07-03,-4.40, 3.43, -14.75, 2.26, 1.60, 7.59, repro,
2009-07-04,-5.17, 2.88, -10.62, 2.38, 1.66, 7.87, repro,
2009-07-05,-6.80, 3.85, -1.50, 2.44, 1.74, 8.05, repro,
2009-07-06,-5.99, 4.27, -3.72, 2.32, 1.67, 7.67, repro,
2009-07-07,-3.72, 5.83, -8.91, 2.34, 1.67, 7.78, repro,
2009-07-08,-7.21, 4.06, -6.29, 2.31, 1.69, 7.78, repro,
2009-07-09,-6.19, 3.28, -21.67, 2.35, 1.69, 7.87, repro,
2009-07-10,-5.17, 2.54, -15.24, 2.33, 1.66, 7.80, repro,
2009-07-11,-6.23, 4.29, -9.04, 2.30, 1.65, 7.70, repro,
2009-07-12,-5.36, 4.62, -8.93, 2.31, 1.63, 7.61, repro,
2009-07-13,-6.39, 6.21, -13.79, 2.28, 1.62, 7.68, repro,
2009-07-14,-3.56, 4.23, -18.80, 2.40, 1.74, 8.01, repro,
2009-07-15,-5.63, 2.38, -3.27, 2.36, 1.68, 7.85, repro,
2009-07-16,-9.00, 2.69, -7.12, 2.37, 1.71, 7.97, repro,
2009-07-17,-6.16, 2.03, -9.12, 2.38, 1.78, 8.26, repro,
2009-07-18,-5.44, 3.21, -9.11, 2.34, 1.70, 8.01, repro,
2009-07-19,-5.55, 5.11, -9.65, 2.42, 1.71, 7.96, repro,
2009-07-20,-6.44, 3.06, 0.83, 2.33, 1.65, 7.74, repro,
2009-07-21,-7.02, 2.89, -1.41, 2.31, 1.64, 7.64, repro,
2009-07-22,-5.21, 2.75, -10.90, 2.33, 1.68, 7.95, repro,
2009-07-23,-7.73, 2.39, -1.60, 2.42, 1.68, 7.86, repro,
2009-07-24,-6.81, 4.10, 5.74, 2.41, 1.74, 8.20, repro,
2009-07-25,-6.92, 3.16, -8.22, 2.34, 1.65, 7.86, repro,
2009-07-26,-5.27, 4.10, -14.63, 2.63, 1.86, 8.67, repro,
2009-07-27,-5.75, 4.42, -15.56, 2.25, 1.63, 7.61, repro,
2009-07-28,-5.94, 1.87, -1.70, 2.32, 1.63, 7.77, repro,
2009-07-29,-4.44, 2.13, -8.51, 2.29, 1.62, 7.68, repro,
2009-07-30,-7.57, 1.82, -4.26, 2.42, 1.69, 8.33, repro,
2009-07-31,-6.50, 2.07, -8.97, 2.31, 1.65, 7.74, repro,
2009-08-01,-5.26, 1.62, 5.64, 2.32, 1.67, 7.85, repro,
2009-08-02,-5.70, 2.56, -8.36, 2.36, 1.70, 8.07, repro,
2009-08-03,-4.76, 3.16, -3.82, 2.29, 1.62, 7.67, repro,
2009-08-04,-8.10, 1.45, -1.77, 2.29, 1.68, 7.86, repro,
2009-08-05,-7.21, 1.88, -6.42, 2.43, 1.72, 7.98, repro,
2009-08-06,-7.85, 3.31, -3.66, 2.24, 1.61, 7.50, repro,
2009-08-07,-6.68, 3.58, -9.56, 2.52, 1.85, 8.70, repro,
2009-08-08,-7.36, 2.50, -2.33, 2.28, 1.65, 7.72, repro,
2009-08-09,-7.85, 1.88, -8.62, 2.39, 1.71, 8.13, repro,
2009-08-10,-5.08, 2.85, -10.05, 2.54, 1.94, 8.91, repro,
2009-08-11,-8.86, 3.75, -5.11, 2.44, 1.72, 8.23, repro,
2009-08-12,-7.57, 3.70, 4.76, 2.31, 1.68, 7.84, repro,
2009-08-13,-7.05, 3.82, -0.97, 2.39, 1.70, 8.01, repro,
2009-08-14,-6.14, 4.18, -5.04, 2.42, 1.69, 7.90, repro,
2009-08-15,-4.34, 3.91, -12.31, 2.37, 1.67, 7.88, repro,
2009-08-16,-4.01, 5.01, -6.43, 2.37, 1.68, 7.97, repro,
2009-08-17,-7.64, 4.09, 0.77, 2.37, 1.70, 8.05, repro,
2009-08-18,-4.48, 3.90, -0.96, 2.59, 1.95, 9.07, repro,
2009-08-19,-3.36, 3.23, -4.54, 2.45, 1.75, 8.15, repro,
2009-08-20,-6.00, 3.03, 0.50, 2.35, 1.65, 7.83, repro,
2009-08-21,-5.35, 4.03, -10.23, 2.38, 1.72, 8.13, repro,
2009-08-22,-9.53, 4.82, 0.75, 2.43, 1.71, 7.99, repro,
2009-08-23,-7.63, 4.84, -2.31, 2.34, 1.69, 7.89, repro,
2009-08-24,-5.31, 2.30, 0.02, 2.53, 1.92, 8.86, repro,
2009-08-25,-4.69, 4.68, -4.31, 2.34, 1.69, 7.91, repro,
2009-08-26,-4.53, 3.70, -8.21, 2.36, 1.69, 7.90, repro,
2009-08-27,-8.38, 3.11, -2.59, 2.34, 1.67, 7.86, repro,
2009-08-28,-8.64, 4.14, -8.94, 2.34, 1.69, 8.04, repro,
2009-08-29,-5.95, 4.79, -4.47, 2.31, 1.66, 7.79, repro,
2009-08-30,-7.08, 3.26, -4.05, 2.34, 1.71, 7.88, repro,
2009-08-31,-7.15, 4.67, -5.51, 2.31, 1.70, 7.86, repro,
2009-09-01,-8.37, 3.51, -2.87, 2.38, 1.72, 8.06, repro,
2009-09-02,-8.14, 1.40, -0.38, 2.38, 1.77, 8.48, repro,
2009-09-03,-9.34, 3.35, 2.03, 2.40, 1.68, 7.85, repro,
2009-09-04,-7.04, 3.38, -4.70, 2.32, 1.69, 7.89, repro,
2009-09-05,-6.30, 3.53, -7.83, 2.35, 1.71, 8.02, repro,
2009-09-06,-8.99, 6.11, -3.01, 2.48, 1.76, 8.35, repro,
2009-09-07,-5.84, 6.10, -9.69, 2.32, 1.66, 7.95, repro,
2009-09-08,-5.83, 4.64, -6.01, 2.28, 1.63, 7.79, repro,
2009-09-09,-7.65, 3.89, -10.91, 2.35, 1.70, 8.24, repro,
2009-09-10,-8.34, 2.87, -0.65, 2.35, 1.72, 8.12, repro,
2009-09-11,-6.31, 3.82, -4.50, 2.28, 1.63, 7.81, repro,
2009-09-12,-8.34, 3.25, -2.12, 2.30, 1.66, 7.77, repro,
2009-09-13,-9.40, 3.69, 6.09, 2.30, 1.68, 7.92, repro,
2009-09-14,-8.77, 2.72, 7.03, 2.32, 1.69, 7.99, repro,
2009-09-15,-9.05, 4.39, -5.19, 2.33, 1.68, 7.98, repro,
2009-09-16,-6.42, 4.11, -7.21, 2.36, 1.69, 8.03, repro,
2009-09-17,-7.33, 4.24, -5.33, 2.48, 1.79, 8.59, repro,
2009-09-18,-7.38, 2.95, 0.89, 2.33, 1.70, 8.10, repro,
2009-09-19,-8.76, 6.00, -0.29, 2.33, 1.71, 8.07, repro,
2009-09-20,-8.06, 5.02, -6.02, 2.34, 1.67, 7.90, repro,
2009-09-21,-8.08, 4.58, -3.21, 2.38, 1.74, 8.08, repro,
2009-09-22,-7.29, 2.37, -4.57, 2.40, 1.73, 8.27, repro,
2009-09-23,-6.60, 2.20, -3.66, 2.38, 1.78, 8.38, repro,
2009-09-24,-9.84, 2.59, 3.93, 2.34, 1.68, 7.96, repro,
2009-09-25,-5.87, 5.11, -1.56, 2.39, 1.75, 8.20, repro,
2009-09-26,-6.39, 4.57, 3.12, 2.36, 1.73, 7.99, repro,
2009-09-27,-8.41, 3.34, 7.41, 2.37, 1.71, 8.03, repro,
2009-09-28,-8.81, 4.05, 8.60, 2.36, 1.65, 7.82, repro,
2009-09-29,-8.69, 4.65, -4.36, 2.43, 1.77, 8.30, repro,
2009-09-30,-9.70, 4.97, 15.78, 2.37, 1.73, 8.07, repro,
2009-10-01,-9.57, -0.84, 24.38, 2.48, 1.77, 8.49, repro,
2009-10-02,-12.40, 1.32, 1.38, 2.44, 1.75, 8.42, repro,
2009-10-03,-7.94, 4.87, 1.32, 2.29, 1.68, 7.89, repro,
2009-10-04,-3.43, 6.83, 2.72, 2.37, 1.73, 8.18, repro,
2009-10-05,-11.43, -2.64, 14.30, 2.37, 1.71, 8.19, repro,
2009-10-06,-18.01, -0.58, 6.21, 2.41, 1.76, 8.20, repro,
2009-10-07,-7.03, 5.54, -1.43, 2.34, 1.72, 7.99, repro,
2009-10-08,-8.41, 4.51, -2.26, 2.43, 1.75, 8.19, repro,
2009-10-09,-8.53, 5.32, -7.55, 2.35, 1.70, 8.17, repro,
2009-10-10,-6.64, 5.35, -8.84, 2.31, 1.69, 7.94, repro,
2009-10-11,-8.82, 6.77, 0.30, 2.31, 1.67, 7.89, repro,
2009-10-12,-8.48, 5.80, 2.31, 2.33, 1.69, 8.05, repro,
2009-10-13,-8.60, 4.21, 9.38, 2.35, 1.68, 7.92, repro,
2009-10-14,-9.10, 3.53, 9.04, 2.57, 1.76, 8.29, repro,
2009-10-15,-6.35, 3.55, -2.50, 2.72, 2.10, 9.99, repro,
2009-10-16,-7.14, 4.48, -3.49, 2.48, 1.95, 9.00, repro,
2009-10-17,-8.63, 4.29, -6.83, 2.32, 1.72, 7.93, repro,
2009-10-18,-13.14, 4.89, -15.35, 9.77, 8.04, 33.89, repro,
2009-10-19,-10.83, 5.08, -1.79, 2.37, 1.76, 8.06, repro,
2009-10-20,-8.59, 4.66, -5.83, 2.38, 1.76, 8.12, repro,
2009-10-21,-8.94, 4.74, 8.27, 2.34, 1.76, 8.30, repro,
2009-10-22,-7.56, 4.49, -4.85, 2.42, 1.80, 8.16, repro,
2009-10-23,-8.83, 5.37, -6.86, 2.31, 1.71, 7.86, repro,
2009-10-24,-9.17, 4.55, -2.15, 2.35, 1.72, 7.89, repro,
2009-10-25,-8.62, 5.04, -1.85, 2.45, 1.79, 8.13, repro,
2009-10-26,-10.88, 4.63, -0.15, 2.43, 1.82, 8.36, repro,
2009-10-27,-12.27, -4.30, -4.74, 2.38, 1.78, 8.27, repro,
2009-10-28,-7.17, 0.42, -26.03, 2.33, 1.74, 8.10, repro,
2009-10-29,-16.31, -0.72, 2.47, 2.61, 1.86, 8.72, repro,
2009-10-30,-8.53, 4.67, -5.42, 2.48, 1.79, 8.46, repro,
2009-10-31,-12.13, 5.91, 6.72, 2.36, 1.72, 8.04, repro,
2009-11-01,-9.49, 5.27, -4.79, 2.36, 1.74, 8.12, repro,
2009-11-02,-8.29, 5.58, -1.60, 2.45, 1.78, 8.24, repro,
2009-11-03,-7.20, 6.23, -11.97, 2.34, 1.73, 8.08, repro,
2009-11-04,-9.76, 6.10, -2.97, 2.43, 1.76, 8.06, repro,
2009-11-05,-9.21, 5.02, 6.58, 2.33, 1.74, 7.98, repro,
2009-11-06,-10.13, 5.79, 5.30, 2.45, 1.79, 8.17, repro,
2009-11-07,-11.13, 2.28, 2.60, 2.45, 1.80, 8.27, repro,
2009-11-08,-12.46, 0.97, 4.74, 2.65, 1.92, 8.79, repro,
2009-11-09,-11.07, -1.77, 3.22, 2.41, 1.78, 8.05, repro,
2009-11-10,-9.19, 0.28, -12.72, 2.55, 1.88, 8.62, repro,
2009-11-11,-8.98, 1.60, -5.35, 2.52, 1.85, 8.37, repro,
2009-11-12,-9.23, 4.20, 0.38, 2.48, 1.93, 8.87, repro,
2009-11-13,-11.79, 4.01, -3.93, 2.51, 1.82, 8.51, repro,
2009-11-14,-6.57, -0.50, -8.80, 2.49, 1.79, 8.35, repro,
2009-11-15,-19.02, -6.71, -10.77, 2.43, 1.79, 8.21, repro,
2009-11-16,-30.32, -7.51, 1.23, 2.37, 1.78, 8.11, repro,
2009-11-17,-17.69, -0.74, 0.86, 2.49, 1.79, 8.20, repro,
2009-11-18,-17.46, -1.02, 0.59, 2.42, 1.78, 8.27, repro,
2009-11-19,-14.14, -1.28, -11.72, 2.50, 2.00, 9.23, repro,
2009-11-20,-12.35, -1.81, -9.22, 2.73, 2.15, 9.77, repro,
2009-11-21,-11.46, 3.14, -3.93, 2.33, 1.71, 7.85, repro,
2009-11-22,-14.89, 2.50, -0.66, 2.44, 1.76, 8.38, repro,
2009-11-23,-10.16, 0.50, -9.05, 2.37, 1.71, 7.90, repro,
2009-11-24,-9.63, 4.88, -3.37, 2.40, 1.72, 7.95, repro,
2009-11-25,-7.38, 6.55, -12.65, 2.38, 1.76, 7.99, repro,
2009-11-26,-9.92, 7.04, -10.39, 2.44, 1.81, 8.12, repro,
2009-11-27,-8.40, 6.78, -23.88, 2.32, 1.67, 7.78, repro,
2009-11-28,-0.88, 5.00, -24.86, 2.54, 1.92, 8.83, repro,
2009-11-29,-9.58, 4.76, -4.98, 2.38, 1.73, 8.02, repro,
2009-11-30,-8.36, 7.96, -12.18, 2.42, 1.77, 8.19, repro,
2009-12-01,-8.21, 7.77, -5.86, 2.44, 1.76, 8.25, repro,
2009-12-02,-9.17, 6.38, -7.75, 2.34, 1.67, 7.74, repro,
2009-12-03,-8.09, 7.22, -7.18, 2.45, 1.73, 7.94, repro,
2009-12-04,-7.82, 6.12, -12.75, 2.32, 1.73, 7.96, repro,
2009-12-05,-6.10, 7.90, -13.94, 2.30, 1.71, 7.83, repro,
2009-12-06,-9.25, 7.32, 3.20, 2.23, 1.62, 7.49, repro,
2009-12-07,-6.56, 8.75, -5.34, 2.28, 1.61, 7.51, repro,
2009-12-08,-8.53, 7.82, -2.35, 2.24, 1.61, 7.35, repro,
2009-12-09,-9.88, 7.70, 0.40, 2.36, 1.75, 8.08, repro,
2009-12-10,-8.28, 6.69, -2.71, 2.29, 1.68, 7.65, repro,
2009-12-11,-8.52, 8.39, -5.43, 2.25, 1.69, 7.70, repro,
2009-12-12,-10.98, 6.83, 1.87, 2.41, 1.78, 8.26, repro,
2009-12-13,-10.20, 6.87, -3.27, 2.26, 1.63, 7.48, repro,
2009-12-14,-10.66, 6.81, -7.16, 2.29, 1.65, 7.54, repro,
2009-12-15,-14.78, 5.87, -9.48, 2.38, 1.75, 8.15, repro,
2009-12-16,-14.27, 9.03, -18.55, 2.42, 1.75, 8.06, repro,
2009-12-17,-8.21, 11.02, -20.47, 2.47, 1.79, 8.26, repro,
2009-12-18,-8.65, 11.40, -12.74, 2.51, 1.78, 8.60, repro,